Flag for Hungary Weather past 2 weeks in Szeged, Hungary

Now
39 °F

Passing clouds.


Feels Like: 39 °F
Forecast: 43 / 63 °F
Wind: 1 mph from Northwest

Location: Szeged

Current Time: Apr 21, 2015 at 4:43:44 AM

Latest Report: Apr 21, 2015 at 4:00 AM


Visibility: 16 mi

Pressure: 30.10 "Hg

Humidity: 80%

Dew point: 34 °F

Location of SzegedLocation

Historic Weather in Szeged — Graph

°F

Szeged temperature yesterday

Maximum temperature yesterday: 62 °F (at 4:00 PM)
Minimum temperature yesterday: 35 °F (at 5:00 AM)
Average temperature yesterday: 50 °F

Past Weeks' High & Low Weather Summary

 TemperatureHumidityPressure
High79 °F (Apr 16, 4:00 PM)94% (Apr 18, 2:00 AM)30.41 "Hg (Apr 18, 2:00 AM)
Low32 °F (Apr 6, 7:00 AM)18% (Apr 10, 3:00 PM)29.81 "Hg (Apr 17, 8:00 PM)
Average53 °F53%30.15 "Hg
* Reported Apr 6 3:00 AM — Apr 21 3:00 AM, Szeged, Weather by CustomWeather, © 2015

Note: Actual official high and low records may vary slightly from our data, if they occured in-between our weather recording intervals... More about our weather records

Advertising

Szeged weather history for previous 24 hours

 ConditionsComfort  
Time TempWeatherWind HumidityBarometerVisibility
3:00 AM
Tue, Apr 21
40 °FPassing clouds.1 mph78%30.09 "Hg16 mi
2:00 AM40 °FPassing clouds.2 mph80%30.08 "Hg16 mi
1:00 AM45 °FPassing clouds.2 mph67%30.06 "Hg19 mi
12:00 AM49 °FPassing clouds.2 mph57%30.05 "Hg25 mi
11:00 PM
Mon, Apr 20
53 °FPassing clouds.6 mph46%30.03 "Hg25 mi
10:00 PM54 °FPassing clouds.5 mph46%29.99 "Hg25 mi
9:00 PM54 °FPassing clouds.5 mph45%29.97 "Hg25 mi
8:00 PM58 °FOvercast.6 mph37%29.95 "Hg22 mi
7:00 PM60 °FOvercast.7 mph34%29.94 "Hg22 mi
6:00 PM61 °FOvercast.9 mph32%29.93 "Hg25 mi
5:00 PM61 °FPartly sunny.10 mph31%29.93 "Hg25 mi
4:00 PM62 °FPartly sunny.9 mph31%29.93 "Hg25 mi
3:00 PM61 °FPartly sunny.10 mph31%29.95 "Hg25 mi
2:00 PM62 °FPartly sunny.10 mph33%29.96 "Hg28 mi
1:00 PM61 °FPartly sunny.10 mph35%29.99 "Hg28 mi
12:00 PM60 °FPartly sunny.10 mph36%30.00 "Hg25 mi
11:00 AM57 °FScattered clouds.9 mph37%30.03 "Hg25 mi
10:00 AM55 °FPassing clouds.7 mph47%30.04 "Hg22 mi
9:00 AM50 °FPartly sunny.6 mph60%30.05 "Hg22 mi
8:00 AM44 °FScattered clouds.5 mph69%30.06 "Hg22 mi
7:00 AM36 °FScattered clouds.3 mph79%30.08 "Hg22 mi
6:00 AM35 °FPassing clouds.3 mph75%30.09 "Hg22 mi
5:00 AM35 °FClear.2 mph78%30.09 "Hg16 mi
4:00 AM36 °FPassing clouds.2 mph75%30.11 "Hg16 mi
Weather by CustomWeather, © 2015

See weather overviewHow to use our weather pages